Location: Bratislava
(48.1500°N, 17.1170°E)
Time: 05:51:22
(UTC+01:00)

Tiangong 1 - Visible Passes

Search period start: 18 December 2017 00:00
Search period end: 28 December 2017 00:00
Orbit: 274 x 301 km, 42.8° (Epoch: 17 December)

Date Brightness Start Highest point End Pass type
(mag) Time Alt. Az. Time Alt. Az. Time Alt. Az.
22 Dec 3.4 05:50:30 10° SSW 05:51:50 14° SSE 05:53:16 10° SE visible
23 Dec 2.9 05:54:05 15° SSW 05:55:05 18° SSE 05:56:56 10° ESE visible
24 Dec 2.6 05:57:27 18° SSW 05:58:15 21° S 06:00:17 10° ESE visible
25 Dec 2.4 06:00:37 20° SSW 06:01:20 23° S 06:03:25 10° ESE visible
26 Dec 2.4 06:03:37 20° SSW 06:04:19 22° S 06:06:22 10° SE visible
27 Dec 2.5 06:06:30 17° SW 06:07:11 19° S 06:09:06 10° SE visible
